Weather observations for the past three days for
Crescent City, Jack McNamara Field Airport
Metric (Imperial)
Date Time (pdt) Wind (kph) Vis. (km) Weather Sky Cond. Temperature (ºC) Relative Humidity Wind Chill (°C) Heat Index (°C) Pressure Precipitation (cm)
Air Dwpt 6 hour altimeter (cm) sea level (mb) 1 hr 3 hr 6 hr
Max. Min.
05 22:56 NW 6 16.09 Overcast OVC015 12.2 10 13.3 12.2 87% 76.43 1018.9
05 21:56 Calm 16.09 Overcast OVC015 12.2 9.4 83% 76.4 1018.8
05 20:56 NW 7 16.09 Overcast OVC017 12.2 10 87% 76.35 1018.1
05 19:56 NW 11 16.09 Overcast OVC018 12.2 10.6 90% 76.33 1017.5
05 18:56 N 9 16.09 Overcast FEW007 OVC019 12.8 10.6 87% 76.3 1017.3
05 17:56 N 11 16.09 Overcast BKN006 OVC020 12.8 11.1 90% 76.28 1017.0
05 16:56 NW 13 16.09 Overcast BKN006 OVC021 13.3 11.1 15.6 13.3 87% 76.3 1017.1
05 15:56 NW 17 16.09 Overcast FEW007 OVC022 13.9 11.7 87% 76.3 1017.3
05 14:56 NW 17 16.09 Overcast OVC024 15.6 12.2 80% 76.3 1017.2
05 13:56 NW 13 16.09 Overcast OVC024 15.6 11.1 75% 76.3 1017.1
05 12:56 W 15 16.09 Overcast OVC024 15 10.6 75% 76.28 1017.1
05 11:56 W 9 16.09 Overcast OVC024 14.4 8.9 70% 76.28 1017.1
05 10:56 NW 9 16.09 Overcast OVC024 13.9 10.6 14.4 12.2 81% 76.28 1016.9
05 09:56 NW 9 16.09 Overcast OVC025 13.9 10.6 81% 76.25 1016.6
05 08:56 NW 6 12.87 Overcast OVC023 12.8 11.1 90% 76.25 1016.6
05 07:56 Calm 16.09 Overcast OVC023 12.8 11.1 90% 76.23 1016.3
05 06:56 E 6 16.09 Overcast OVC023 12.2 10.6 90% 76.2 1016.0
05 05:56 Calm 16.09 Overcast OVC025 12.2 11.1 93% 76.2 1015.8
05 04:56 Calm 16.09 Overcast OVC027 12.2 11.1 12.8 12.2 93% 76.17 1015.6
05 03:56 Calm 16.09 Overcast OVC027 12.2 11.1 93% 76.15 1015.4
05 02:56 S 6 16.09 Overcast OVC029 12.8 11.1 90% 76.15 1015.4
05 01:56 SE 7 16.09 Overcast OVC031 12.8 11.1 90% 76.2 1015.9
05 00:56 S 6 16.09 Overcast OVC032 12.8 11.1 90% 76.23 1016.2
04 23:56 S 7 16.09 Overcast OVC032 12.8 11.1 90% 76.23 1016.2
04 22:56 S 7 16.09 Overcast OVC033 12.8 11.1 15 12.8 90% 76.23 1016.2
04 21:56 S 7 16.09 Overcast OVC035 12.8 11.1 90% 76.23 1016.3
04 20:56 S 7 16.09 Overcast OVC036 12.8 11.1 90% 76.2 1015.8
04 19:56 S 9 16.09 Overcast OVC027 13.3 11.1 87% 76.15 1015.2
04 18:56 S 7 16.09 Overcast FEW007 OVC028 13.3 11.7 90% 76.15 1015.3
04 17:56 SW 13 16.09 Overcast OVC031 13.9 11.7 87% 76.17 1015.6
04 16:56 S 13 16.09 Mostly Cloudy FEW010 BKN033 14.4 11.7 15 12.8 84% 76.17 1015.5
04 15:56 S 13 16.09 Fair CLR 14.4 11.1 81% 76.17 1015.7
04 14:56 S 13 16.09 Fair CLR 14.4 11.1 81% 76.2 1016.1
04 13:56 S 15 16.09 Overcast OVC029 14.4 11.1 81% 76.25 1016.5
04 12:56 S 15 16.09 Overcast OVC030 14.4 11.7 84% 76.25 1016.7
04 11:56 S 15 16.09 Overcast OVC029 13.3 10.6 84% 76.25 1016.6
04 10:56 S 13 16.09 Overcast OVC022 12.8 11.1 12.8 11.1 90% 76.25 1016.6
04 09:56 S 13 16.09 Overcast OVC022 12.2 11.1 93% 76.2 1016.1
04 08:56 S 9 16.09 Overcast BKN008 OVC022 12.2 11.1 93% 76.2 1016.1
04 07:56 SE 13 16.09 Overcast FEW006 SCT010 OVC020 12.2 11.1 93% 76.17 1015.6
04 06:56 S 9 12.87 Overcast BKN009 OVC017 11.7 11.1 96% 76.15 1015.2
04 05:56 S 9 16.09 Overcast BKN010 OVC022 11.7 11.1 96% 76.12 1014.9
04 04:56 S 9 16.09 Overcast OVC014 11.1 10.6 11.7 10.6 97% 76.12 1014.8
04 03:56 Calm 9.66 Fog/Mist FEW015 OVC023 10.6 10.6 100% 76.1 1014.6
04 02:56 Calm 16.09 Partly Cloudy SCT120 11.1 10.6 97% 76.12 1014.9
04 01:56 E 6 16.09 Overcast OVC015 11.7 11.1 96% 76.12 1015.1
04 00:56 SE 6 16.09 Overcast BKN011 OVC018 11.7 11.1 96% 76.17 1015.7
03 23:56 S 13 4.02 Fog/Mist OVC005 11.7 11.1 96% 76.2 1015.9
03 22:56 S 13 14.48 Overcast BKN007 OVC012 11.7 10.6 12.2 11.7 93% 76.15 1015.2 0.25
03 21:56 S 15 16.09 Overcast BKN010 OVC013 11.7 11.1 96% 76.1 1014.6
03 20:56 S 15 16.09 Overcast SCT006 OVC012 11.7 10.6 93% 76.02 1013.5
03 19:56 SE 9 16.09 Light Rain FEW006 FEW022 OVC100 11.7 10.6 93% 76.02 1013.5 0.2 0.25
03 18:56 S 7 16.09 Light Rain FEW022 OVC100 11.7 10.6 93% 76.05 1013.9 0.05
03 17:56 S 15 16.09 Overcast SCT005 OVC013 11.7 10.6 93% 76 1013.2
03 16:56 S 13 11.27 Overcast OVC003 11.7 11.1 13.3 11.7 96% 75.97 1012.9
03 15:56 S 22 4.83 Fog/Mist OVC004 12.2 11.1 93% 75.97 1012.9
03 14:56 S 17 4.83 Fog/Mist OVC003 12.2 11.1 93% 75.97 1012.9
03 13:56 S 15 6.44 Fog/Mist OVC004 12.2 11.1 93% 75.95 1012.5
03 12:56 S 15 16.09 Overcast OVC006 12.2 10.6 90% 75.95 1012.5
03 11:56 S 11 11.27 Overcast OVC006 12.2 10.6 90% 75.95 1012.6
03 10:56 S 17 9.66 Fog/Mist OVC004 11.7 10.6 11.7 10.6 93% 75.97 1012.7
03 09:56 S 17 12.87 Overcast OVC004 11.1 10 93% 75.92 1012.2
03 08:56 S 13 9.66 Fog/Mist OVC004 11.1 10 93% 75.9 1011.9
03 07:56 S 13 12.87 Overcast OVC004 11.1 10 93% 75.87 1011.4
03 06:56 S 11 9.66 Fog/Mist OVC003 10.6 10 96% 75.84 1011.0
03 05:56 S 9 11.27 Overcast OVC004 10.6 10 96% 75.82 1010.9
03 04:56 S 15 16.09 Overcast OVC005 11.1 10 11.7 11.1 93% 75.82 1011.0
03 03:56 S 15 14.48 Overcast OVC005 11.1 10 93% 75.84 1011.3
03 02:56 S 19 16.09 Overcast OVC006 11.1 10 93% 75.84 1011.3
03 01:56 S 17 16.09 Overcast OVC006 11.1 10 93% 75.9 1011.8
03 00:56 S 19 16.09 Overcast OVC007 11.7 10 89% 75.92 1012.2
02 23:56 S 19 16.09 Overcast OVC008 11.7 10 89% 75.92 1012.1
Date Time (pdt) Wind (kph) Vis. (km) Weather Sky Cond. Air Dwpt Max. Min. Relative Humidity Wind Chill (°C) Heat Index (°C) altimeter (cm) sea level (mb) 1 hr 3 hr 6 hr
6 hour
Temperature (ºC) Pressure Precipitation (cm)